AO-07 1 07530U 74089B 16117.90329251 -.00000028 00000-0 96335-4 0 9991 2 07530 101.5699 89.9186 0012423 51.7444 3.9542 12.53620934896692 FO-29 1 24278U 96046B 16117.85229771 -.00000044 00000-0 -60527-5 0 9990 2 24278 098.5843 049.7806 0350040 335.7288 022.7701 13.53066950972313 RS-22 1 27939U 03042A 16118.56684882 .00000261 00000-0 55570-4 0 9998 2 27939 97.8818 272.2142 0014483 104.8035 255.4775 14.66381165672409 HO-68 1 36122U 09072B 16118.51476863 -.00000059 00000-0 -43517-4 0 9999 2 36122 100.1482 156.4140 0008277 113.1437 247.0556 13.16333832305940 AO-73 1 39444U 13066AE 16118.21944749 .00000596 00000-0 81359-4 0 9997 2 39444 97.6859 173.8073 0058998 186.0029 174.0484 14.80991371130032 EO-79 1 40025U 14033R 16118.28809837 .00000600 00000-0 71549-4 0 9990 2 40025 97.9320 23.7539 0011482 227.3968 132.6281 14.87945705100638 XW-2A 1 40903U 15049E 16118.58080796 .00003690 00000-0 10732-3 0 9999 2 40903 97.4475 133.1261 0014750 322.4869 152.5764 15.36001972 33787 XW-2C 1 40906U 15049H 16118.54963022 .00001607 00000-0 93416-4 0 9997 2 40906 97.4533 126.7232 0014540 207.1510 269.2895 15.13418227 33343 LILACSAT-2 1 40908U 15049K 16118.39761667 .00000424 00000-0 28061-4 0 9993 2 40908 97.4593 126.5072 0015501 201.4116 292.9167 15.12432390 33305 XW-2E 1 40909U 15049L 16118.53371880 .00001915 00000-0 10803-3 0 9994 2 40909 97.4528 126.8938 0013509 210.8286 268.9900 15.14284354 33356 UO-11 1 14781U 84021B 16118.21845046 .00000186 00000-0 29368-4 0 9990 2 14781 97.7546 171.7672 0009928 117.6426 242.5797 14.82723772728700 LO-19 1 20442U 90005G 16117.87817816 .00000041 00000-0 30998-4 0 9996 2 20442 098.5409 053.5419 0010784 301.5483 058.4647 14.32811617371942 AO-27 1 22825U 93061C 16117.86550353 .00000023 00000-0 26258-4 0 9991 2 22825 98.7545 73.8093 0009499 105.6929 254.5301 14.29951001177908 IO-26 1 22826U 93061D 16118.48121678 .00000045 00000-0 34729-4 0 9991 2 22826 98.7489 74.5583 0010087 96.3989 263.8342 14.30275191178152 GO-32 1 25397U 98043D 16117.90318121 .00000011 00000-0 23389-4 0 9992 2 25397 098.5630 064.1880 0002281 110.0716 250.0709 14.23591468924343 NO-44 1 26931U 01043C 16118.22547907 -.00000012 00000-0 27374-4 0 9993 2 26931 67.0507 84.3834 0007425 265.0029 95.0225 14.30401938760852 SO-50 1 27607U 02058C 16118.52359905 .00000150 00000-0 42201-4 0 9991 2 27607 64.5550 315.6361 0072899 227.5477 131.9448 14.75130340717792 CO-55 1 27844U 03031E 16117.94516362 .00000082 00000-0 56751-4 0 9992 2 27844 098.6937 126.9654 0010905 109.1683 251.0676 14.21939692665128 CO-57 1 27848U 03031J 16118.53787314 .00000068 00000-0 50816-4 0 9999 2 27848 98.7034 127.6170 0010762 114.9369 245.2928 14.21567455665149 CO-65 1 32785U 08021C 16117.84472682 .00000440 00000-0 54208-4 0 9994 2 32785 97.6079 154.1840 0014837 105.5819 254.7036 14.87509695432998 PRISM 1 33493U 09002B 16118.53420750 .00000608 00000-0 61628-4 0 9997 2 33493 98.2226 336.2298 0016376 17.5310 342.6505 14.94797203393664 TISAT-1 1 36799U 10035E 16118.54388036 .00000828 00000-0 92538-4 0 9996 2 36799 98.0252 228.0587 0011344 249.1080 110.8923 14.89709633313888 ALMASAT-1 1 38078U 12006B 16117.89411923 .00028782 35696-5 40356-3 0 9990 2 38078 069.4475 154.9162 0395855 175.8111 184.6570 15.00132159221889 DUCHIFAT-1 1 40021U 14033M 16118.28719594 .00000928 00000-0 10414-3 0 9992 2 40021 97.9349 24.7096 0012021 226.3722 133.6498 14.89205615100688 NANOSATCBR1 1 40024U 14033Q 16118.44972097 .00000708 00000-0 82004-4 0 9993 2 40024 97.9324 24.3343 0011307 225.1676 134.8623 14.88628772100681 DTUSAT-2 1 40030U 14033W 16118.45874496 .00000582 00000-0 70234-4 0 9997 2 40030 97.9300 23.4190 0011021 219.5849 140.4563 14.87577484100637 ANTELSAT 1 40034U 14033AA 16118.43140677 .00000416 00000-0 70430-4 0 9990 2 40034 97.9109 8.0326 0058747 187.4507 172.5817 14.73334355 99704 MET-2/21 1 22782U 93055A 16118.27876425 -.00000010 00000-0 -22376-4 0 9998 2 22782 82.5501 353.6388 0022886 154.5025 344.6700 13.83787970144172 NOAA-15 1 25338U 98030A 16118.55322631 .00000048 00000-0 39112-4 0 9997 2 25338 98.7835 122.6009 0010122 339.3029 20.7739 14.25719872933771 NOAA-18 1 28654U 05018A 16118.54922066 .00000005 00000-0 28015-4 0 9995 2 28654 99.1981 124.1629 0014793 153.2489 206.9447 14.12280827563589 NOAA-19 1 33591U 09005A 16118.49567286 .00000105 00000-0 82053-4 0 9997 2 33591 99.0355 74.8666 0014179 6.3391 353.7957 14.12065794371981 HUBBLE 1 20580U 90037B 16117.93072917 .00000878 00000-0 43919-4 0 9991 2 20580 028.4696 237.1928 0002907 022.3949 278.3275 15.08319901227272 ISS 1 25544U 98067A 16118.56765286 .00004329 00000-0 72029-4 0 9994 2 25544 51.6443 310.5306 0002107 73.7950 28.9464 15.54350419997100 CO-58 1 28895U 05043F 16117.73867133 .00000245 00000-0 56250-4 0 9991 2 28895 097.8299 294.2726 0017479 026.2735 333.9350 14.63167560559355 CAPE1 1 31130U 07012P 16117.85649961 .00000312 00000-0 76710-4 0 9993 2 31130 98.0283 75.2279 0097993 56.2904 304.7588 14.55894741478669 AAUSAT2 1 32788U 08021F 16117.91136047 .00000781 00000-0 80097-4 0 9990 2 32788 097.6087 162.4646 0013842 083.4422 276.8374 14.93092389433440 DO-64 1 32789U 08021G 16118.46944263 .00002085 00000-0 15947-3 0 9999 2 32789 97.6081 178.5832 0014886 76.0239 284.2641 15.02918688434387 CO-66 1 32791U 08021J 16117.80589630 .00000658 00000-0 74213-4 0 9998 2 32791 097.6086 157.1344 0015274 096.6443 263.6514 14.89683769433060 RS-30 1 32953U 08025A 16118.49766991 .00000010 00000-0 -13620-7 0 9996 2 32953 82.5005 138.1770 0020194 110.7909 249.5341 12.43068941359782 JUGNU 1 37839U 11058B 16118.29974013 .00000339 00000-0 38653-4 0 9991 2 37839 19.9608 92.0959 0018717 279.3758 221.0456 14.12536491234829 SRMSAT 1 37841U 11058D 16118.25649325 .00000316 00000-0 28387-4 0 9993 2 37841 19.9708 125.4992 0011758 191.6914 265.9882 14.10536246234487 AO-71 1 37854U 11061E 16118.54370849 .00001500 00000-0 91643-4 0 9996 2 37854 101.7077 135.5871 0174207 223.1589 135.5857 15.01852995244495 HRBE 1 37855U 11061F 16117.99313762 .00002306 00000-0 13327-3 0 9993 2 37855 101.7209 132.8635 0187922 228.8429 129.6436 15.00767808244319 HORYU-2 1 38340U 12025D 16118.49784763 .00000486 00000-0 80371-4 0 9994 2 38340 98.3523 102.4362 0011896 167.1756 192.9757 14.74973987212000 RS-40 1 38735U 12041C 16118.49897922 .00000040 00000-0 21992-3 0 9991 2 38735 82.4781 223.3601 0016527 210.5669 149.4449 12.42572448170074 BEESAT-3 1 39134U 13015E 16117.85258413 .00002356 00000-0 13339-3 0 9990 2 39134 64.8693 128.0847 0008540 258.3191 101.6976 15.15622210166338 BEESAT-2 1 39136U 13015G 16118.24489873 .00002065 00000-0 12569-3 0 9993 2 39136 64.8706 132.2720 0008255 255.4045 104.6163 15.13363480166296 ZACUBE-1 1 39417U 13066B 16118.11134972 .00000432 00000-0 61721-4 0 9995 2 39417 97.6850 173.1534 0059661 188.1563 171.8685 14.80335746131219 TRITON-1 1 39427U 13066M 16118.14383654 .00000329 00000-0 61412-4 0 9994 2 39427 97.6724 154.6906 0113572 240.2170 118.7703 14.67143893130038 GOMX-1 1 39430U 13066Q 16118.48964525 .00000342 00000-0 72263-4 0 9998 2 39430 97.6735 143.2815 0150944 275.7223 82.6789 14.58552956129331 LO-74 1 39440U 13066AA 16118.20924091 .00000406 00000-0 64565-4 0 9990 2 39440 97.6789 165.8891 0080632 207.7778 151.9115 14.75102871130769 SPROUT 1 39770U 14029E 16118.43595180 .00002434 00000-0 28986-3 0 9993 2 39770 97.8688 216.2503 0008142 244.1024 115.9380 14.85238661104405 EO-80 1 40032U 14033Y 16118.48256707 .00000585 00000-0 70609-4 0 9990 2 40032 97.9307 23.4529 0011001 219.7855 140.2555 14.87510245100630 VELOX-1 1 40057U 14034E 16118.44701195 .00000595 00000-0 92761-4 0 9994 2 40057 98.1941 206.4904 0010038 315.8743 44.1667 14.76636296 98395 DAURIA DX 1 1 40071U 14037C 16118.52848326 .00000232 00000-0 37516-4 0 9995 2 40071 98.3301 207.4851 0007738 315.8073 44.2518 14.80783801 97456 UKUBE-1 1 40074U 14037F 16118.47398298 .00000563 00000-0 76401-4 0 9993 2 40074 98.3351 209.3524 0003782 327.8701 32.2279 14.83002287 97555 HODOYOSHI-1 1 40299U 14070B 16118.54176022 .00001603 00000-0 74888-4 0 9999 2 40299 97.4308 201.0874 0015219 106.5009 302.9350 15.21150137 81735 CHUBUSAT-1 1 40300U 14070C 16118.44184321 .00001610 00000-0 78268-4 0 9996 2 40300 97.4266 199.3615 0022676 113.4797 307.6564 15.19637660 81624 QSAT-EOS 1 40301U 14070D 16118.43472428 .00004537 00000-0 20683-3 0 9992 2 40301 97.4212 198.6341 0030991 114.7620 305.7040 15.20719429 81592 FIREBIRD FU3 1 40377U 15003B 16118.51767858 .00002421 00000-0 11454-3 0 9991 2 40377 99.0823 215.7623 0144376 297.2057 61.4517 15.12010954 68126 FIREBIRD FU4 1 40378U 15003C 16118.51435744 .00002358 00000-0 11157-3 0 9997 2 40378 99.0825 215.7707 0144609 297.1678 61.4867 15.12019607 68121 GRIFEX 1 40379U 15003D 16118.45944714 .00002018 00000-0 99849-4 0 9991 2 40379 99.0833 215.0126 0148263 300.5519 58.1144 15.10381508 68077 NO-84 1 40654U 15025D 16117.43223689 .00005650 00000-0 13272-3 0 01014 2 40654 055.0007 286.7959 0209621 305.2444 052.9182 15.24067467016147 NO-83 1 40655U 15025E 16117.43433829 .00009196 00000-0 19588-3 0 01109 2 40655 054.9898 282.0697 0193389 306.6457 051.6918 15.28342697016186 DEORBITSAIL 1 40719U 15032E 16117.75052325 .00000783 00000-0 12255-3 0 9993 2 40719 98.0230 9.8201 0017923 45.3435 314.9232 14.75448810 42902 NUDT-PHONESAT 1 40900U 15049B 16118.45237506 .00003505 00000-0 18361-3 0 9996 2 40900 97.4448 127.0921 0013520 228.6108 267.9689 15.16385156 33386 XW-2D 1 40907U 15049J 16118.54891307 .00001770 00000-0 10247-3 0 9995 2 40907 97.4501 126.6192 0013883 205.7619 253.6153 15.13447538 33347 XW-2F 1 40910U 15049M 16118.39967194 .00001902 00000-0 10865-3 0 9993 2 40910 97.4529 126.6068 0015041 205.1790 260.7222 15.13818886 33215 XW-2B 1 40911U 15049N 16118.55104234 .00001691 00000-0 98108-4 0 9992 2 40911 97.4549 126.7637 0013778 205.3659 271.1182 15.13433916 33243 DCBB 1 40912U 15049P 16118.47578463 .00002240 00000-0 12071-3 0 9998 2 40912 97.4537 127.3032 0015635 200.9045 322.3977 15.15731607 33275 TW-1C 1 40926U 15051B 16118.51781094 .00008030 00000-0 23480-3 0 9996 2 40926 97.2794 156.0073 0013068 225.4662 240.1017 15.35453053 32989 TW-1A 1 40928U 15051D 16118.43293944 .00003890 00000-0 12518-3 0 9990 2 40928 97.2743 155.3546 0012469 246.6205 227.6342 15.32747895 32948 IO-86 1 40931U 15052B 16118.01125589 .00000704 00000-0 91335-5 0 9995 2 40931 5.9985 319.9658 0012782 112.4029 247.7471 14.76450533 31357 GomX-3 1 40949U 98067HA 16118.47984246 .00041888 00000-0 29338-3 0 9994 2 40949 51.6357 295.8581 0003286 38.2754 321.8478 15.73786859 32064 LQSat 1 40958U 15057A 16118.49521964 .00000118 00000-0 26297-4 0 9991 2 40958 98.0168 194.0516 0017475 320.8088 39.1854 14.72850684 29926 AO-85 1 40967U 15058D 16114.33877322 .00000376 00000-0 57692-4 0 01073 2 40967 064.7791 052.1438 0209544 222.4715 136.0003 14.74942463015184 ATHENOXAT-1 1 41168U 15077C 16118.03418310 .00003168 00000-0 15083-3 0 9995 2 41168 14.9923 325.4729 0013298 15.6983 50.5437 15.09672411 20010 ChubuSat-2 1 41338U 16012B 16117.72562036 .00000708 00000-0 49563-4 0 9992 2 41338 31.0054 236.4849 0014304 259.2431 100.6597 14.99327540 10427 ChubuSat-3 1 41339U 16012C 16118.51340192 .00000649 00000-0 44651-4 0 9995 2 41339 31.0105 231.3335 0014098 272.0427 87.8597 14.99561306 10513 Horyu-4 1 41340U 16012D 16118.56475304 .00001028 00000-0 73925-4 0 9994 2 41340 31.0081 230.7694 0014938 277.5714 82.3233 14.99927199 10547 FG-OBJECT C 1 41458U 16025C 16118.54883394 -.00000572 00000-0 -27059-4 0 9990 2 41458 98.2194 126.1276 0176189 236.3434 122.0878 15.00727946 187 FG-OBJECT D 1 41459U 16025D 16118.54881585 .00001966 00000-0 11643-3 0 9998 2 41459 98.2201 126.1294 0176087 236.4262 122.0043 15.00747392 185 FG-OBJECT E 1 41460U 16025E 16118.54881290 .00001367 00000-0 82577-4 0 9993 2 41460 98.2202 126.1295 0176113 236.4444 121.9855 15.00748871 183 /EX
